Meacham, OR

7:58 AM PST on February 21, 2018 (GMT -0800)
Meacham

Weather History for KMEH - September, 2013

Change the Weather History Date:

Thursday, September 12, 2013

  Actual Average Record
Temperature  
Mean Temperature 64 °F -  
Max Temperature 82 °F 68 °F 91 °F (2015)
Min Temperature 45 °F 34 °F 21 °F (2012)
Degree Days  
Heating Degree Days 2    
Growing Degree Days 14 (Base 50)    
Moisture  
Dew Point 47 °F    
Average Humidity 62    
Maximum Humidity 90    
Minimum Humidity 28    
Precipitation  
Precipitation 0.00 in - - ()
Sea Level Pressure  
Sea Level Pressure 30.00 in    
Wind  
Wind Speed 1 mph (North)    
Max Wind Speed 5 mph    
Max Gust Speed -    
Visibility 10 miles    
Events      
Averages and records for this station are not official NWS values.
T = Trace of Precipitation, MM = Missing Value Source: NWS Daily Summary

Daily Weather History Graph

Daily Weather History Graph

Search for Another Location

Airport or City:

Trip Planner

Search our weather history database for the weather conditions in past years. The results will help you decide how hot, cold, wet, or windy it might be!

Date:

Astronomy

Sep. 12, 2013 Rise Set
Actual Time 6:28 AM PDT 7:09 PM PDT
Civil Twilight 5:58 AM PDT 7:39 PM PDT
Nautical Twilight 5:23 AM PDT 8:15 PM PDT
Astronomical Twilight 4:46 AM PDT 8:51 PM PDT
Moon 2:20 PM PDT (9/12) 11:51 PM PDT (9/12)
Length of Visible Light 13h 40m
Length of Day
12h 41m
Waxing Crescent, 51% of the Moon is Illuminated
Sep 12
Waxing Crescent
Sep 19
Full
Sep 26
Last Quarter
Oct 4
New
Oct 11
First Quarter

Hourly Weather History & Observations

Time (PDT) Temp. Dew Point Humidity Pressure Visibility Wind Dir Wind Speed Gust Speed Precip Events Conditions
12:56 AM 48.9 °F 45.0 °F 86% 30.03 in 10.0 mi Calm Calm - N/A   Clear
1:56 AM 48.0 °F 44.1 °F 86% 30.02 in 10.0 mi Calm Calm - N/A   Clear
2:56 AM 46.9 °F 44.1 °F 90% 30.03 in 10.0 mi Calm Calm - N/A   Clear
3:56 AM 46.0 °F 43.0 °F 89% 30.03 in 10.0 mi Calm Calm - N/A   Clear
4:56 AM 45.0 °F 42.1 °F 90% 30.03 in 10.0 mi Calm Calm - N/A   Clear
5:56 AM 45.0 °F 42.1 °F 90% 30.03 in 10.0 mi Calm Calm - N/A   Clear
6:56 AM 46.0 °F 42.1 °F 86% 30.05 in 10.0 mi Calm Calm - N/A   Clear
7:56 AM 48.9 °F 43.0 °F 80% 30.06 in 10.0 mi Calm Calm - N/A   Clear
8:56 AM 55.0 °F 48.0 °F 77% 30.06 in 10.0 mi Calm Calm - N/A   Clear
9:56 AM 75.0 °F 53.1 °F 46% 30.02 in 10.0 mi Calm Calm - N/A   Clear
10:56 AM 77.0 °F 48.0 °F 36% 30.02 in 10.0 mi Calm Calm - N/A   Clear
11:56 AM 77.0 °F 50.0 °F 39% 30.01 in 10.0 mi Variable 3.5 mph - N/A   Clear
12:56 PM 79.0 °F 50.0 °F 36% 30.01 in 10.0 mi Variable 3.5 mph - N/A   Clear
1:56 PM 81.0 °F 50.0 °F 34% 29.99 in 10.0 mi Variable 3.5 mph - N/A   Clear
2:56 PM 82.0 °F 48.9 °F 31% 29.98 in 10.0 mi Variable 4.6 mph - N/A   Clear
3:56 PM 82.9 °F 46.9 °F 28% 29.96 in 10.0 mi Variable 3.5 mph - N/A   Clear
4:56 PM 81.0 °F 46.9 °F 30% 29.96 in 10.0 mi Variable 3.5 mph - N/A   Clear
5:56 PM 77.0 °F 48.0 °F 36% 29.97 in 10.0 mi Calm Calm - N/A   Clear
6:56 PM 71.1 °F 48.0 °F 44% 29.97 in 10.0 mi Calm Calm - N/A   Clear
7:56 PM 64.0 °F 48.9 °F 58% 29.99 in 10.0 mi Calm Calm - N/A   Clear
8:56 PM 60.1 °F 50.0 °F 69% 29.99 in 10.0 mi Calm Calm - N/A   Clear
9:56 PM 57.0 °F 48.9 °F 74% 29.95 in 10.0 mi Calm Calm - N/A   Clear
10:56 PM 55.0 °F 48.0 °F 77% 29.95 in 10.0 mi Calm Calm - N/A   Clear
11:56 PM 53.1 °F 46.9 °F 80% 29.94 in 10.0 mi Calm Calm - N/A   Clear